SCP
0 0 0 0 0 0 0 0 0 0 0 0 0 0 0 0 0 0 0 0 0 0 0 0 0 0 0 0 0 0 0 0 0 0 0 0 0 0 0 0 0 0 0 0 0
0 0 0 0 0 0 0 0 0 0 0 0 0 0 0 0 -0 0 0 0 0 0 0 0 0 0 0 0 0 0 0 0 0 0 0 0 0 0 0 0 0 0 0 0 0
0 0 0 0 0 0 0 0 0 0 0 0 0 0 0 0 -0 0 0 0 0 0 0 0 0 0 0 0 0 0 0 0 0 0 0 0 0 0 0 0 0 0 -0 -0 0
0 0 0 0 0 0 0 0 0 0 0 0 0 0 0 0 0 0 0 0 0 0 0 0 0 0 0 0 0 0 0 0 0 0 0 0 0 0 0 0 0 0 0 0 0
0 0 0 0 0 0 0 0 0 0 0 0 0 0 0 0 0 0 0 0 0 0 0 0 0 0 0 0 0 0 0 0 0 0 0 0 0 0 0 0 0 0 0 0 0
0 0 0 0 0 0 0 0 0 0 0 0 0 0 0 0 0 0 0 0 0 0 0 0 0 0 0 0 0 0 0 0 0 0 0 0 0 0 0 0 0 0 0 0 0
0 0 0 0 0 0 0 0 0 0 0 0 0 0 0 0 0 0 0 0 0 0 0 0 0 0 0 0 0 0 0 0 0 0 0 0 0 0 0 0 0 0 0 0 0
0 0 0 0 0 0 0 0 0 0 0 0 0 0 0 -0 0 0 0 0 0 0 0 0 0 0 0 0 0 0 0 0 0 0 0 0 0 0 0 0 0 0 0 0 0
0 0 0 0 0 0 0 0 0 0 0 0 0 0 0 0 0 0 0 0 0 0 0 0 0 0 0 0 0 0 0 0 0 0 0 0 0 0 0 0 -0 0 0 0 0
0 0 0 0 0 0 0 0 0 -0 0 -0 0 0 0 0 0 0 0 0 0 0 0 0 0 0 0 0 0 0 0 0 0 0 0 0 0 0 0 0 -0 0 0 0 0
0 0 0 0 0 0 0 0 0 0 0 0 0 0 0 0 0 0 0 0 0 0 0 0 0 0 0 0 0 0 0 0 0 0 0 0 0 0 0 0 -0 0 0 0 0
0 0 0 0 0 0 0 0 0 0 0 0 0 0 0 0 0 0 0 0 0 0 0 0 0 0 0 0 0 0 0 0 0 0 0 0 0 0 0 0 -0 0 0 0 0
0 0 0 0 0 0 0 0 0 0 -0 0 0 0 0 0 0 0 0 0 0 0 0 0 0 0 0 0 0 0 0 0 0 0 0 0 0 0 -0 -0 0 0 0 0 0
0 0 0 0 0 0 0 0 0 0 -0 -0 0 0 0 0 0 0 0 0 0 0 0 0 0 0 0 0 0 0 0 0 0 0 0 0 -0 0 0 0 0 0 0 0 0
0 0 0 0 0 0 0 0 0 0 0 0 0 0 0 0 0 0 0 0 0 0 0 0 0 0 0 0 0 0 0 0 0 0 0 0 0 -0 -0 0 -0 0 0 0 0
0 0 0 0 0 0 0 0 0 0 0 0 0 0 0 0 0 0 0 0 0 0 0 0 0 0 0 0 0 0 0 0 0 0 0 0 0 -0 -0 -0 0 0 0 0 0
0 0 0 0 0 0 0 0 0 0 0 0 0 0 0 0 0 0 0 0 0 0 0 0 0 0 0 0 0 0 0 0 0 0 0 0 0 -0 -0 -0 0 0 0 0 0
0 0 0 0 0 0 0 0 0 0 0 0 0 0 0 0 -0 0 0 0 0 0 0 0 0 0 0 0 0 0 0 0 0 0 0 0 -0 0 -0 -0 -0 0 0 0 0
0 0 0 0 0 0 0 0 0 0 0 0 0 0 0 0 -0 -0 0 0 0 0 0 0 0 0 0 0 0 0 0 0 0 0 0 -0 -0 0 -0 0 -0 -0 0 0 0
0 0 0 0 0 0 0 0 0 -0 0 0 0 0 0 0 -0 -0 -0 0 0 0 0 0 0 0 0 0 0 0 0 0 0 0 0 -0 -0 0 0 -0 0 0 0 0 0
0 0 0 0 -0 0 0 0 0 0 -0 -0 0 0 0 0 0 -0 -0 -0 0 0 0 0 0 0 0 0 0 0 0 0 0 0 0 0 0 0 0 -0 0 0 0 0 0
0 0 0 0 -0 -0 0 0 0 0 0 -0 -0 -0 -0 0 0 -0 -0 -0 -0 0 0 0 0 0 0 0 0 0 0 0 0 0 0 0 0 0 0 0 0 0 0 0 0
0 0 0 0 0 0 -0 0 0 0 -0 -0 -0 -0 0 0 0 -0 -0 -0 -0 0 0 0 0 0 0 0 0 0 0 0 0 0 0 0 0 0 0 0 0 0 0 0 -0
0 0 0 0 0 0 -0 0 0 0 -0 -0 0 -0 -0 0 -0 0 -0 -0 -0 0 0 0 0 0 0 0 0 0 0 0 0 0 0 0 0 0 0 0 0 0 0 0 -0
0 0 0 0 0 0 0 0 0 -0 0 -0 -0 0 -0 0 -0 0 0 0 -0 -0 0 0 0 0 0 0 0 0 0 0 0 0 0 0 -0 -0 0 0 0 0 0 -0 -0
0 0 0 0 0 0 0 0 0 0 0 0 -0 -0 -0 -0 -0 -0 0 0 0 -0 0 0 0 0 0 0 0 0 0 0 0 0 0 0 0 0 0 0 0 0 -0 -0 -0
0 0 0 0 0 0 0 0 0 -0 0 0 -0 -0 -0 -0 0 0 0 0 0 0 0 0 0 0 0 0 0 0 0 0 0 0 0 0 0 0 0 0 0 -0 0 -0 -0
Wind_Speed_500mb
30 33 38 41 43 44 45 52 52 51 50 54 58 58 57 58 56 54 58 54 33 17 29 23 22 32 31 29 25 11 12 23 17 17 15 3 5 1 2 18 16 20 32 26 32
28 28 29 34 38 42 46 45 52 52 51 51 54 55 56 57 59 66 61 60 49 45 38 39 37 35 21 18 22 21 23 30 29 26 22 8 14 14 15 26 52 43 36 22 41
32 30 30 28 30 34 37 41 43 48 52 51 52 52 51 45 49 39 51 52 54 57 57 46 39 42 33 19 27 23 39 49 46 40 22 34 31 29 31 37 55 43 54 53 49
35 36 37 35 33 31 32 34 36 38 41 46 48 48 46 29 17 11 21 32 39 64 70 51 39 32 27 33 42 27 45 59 65 47 35 44 41 41 47 72 68 59 52 58 64
35 36 36 38 38 38 37 36 37 38 39 37 37 38 37 23 38 21 21 14 12 14 50 50 52 53 37 34 47 38 45 49 53 60 54 51 54 50 60 87 67 57 57 60 61
40 41 40 39 39 40 41 39 40 40 41 40 38 30 28 27 43 55 64 38 31 21 14 45 27 44 33 32 43 27 57 61 53 45 54 45 63 40 60 80 56 56 63 65 62
41 43 44 46 46 45 44 43 45 44 42 44 44 34 37 68 37 34 32 63 64 51 38 32 56 18 9 16 41 37 31 28 30 44 28 30 46 46 76 71 47 56 61 60 68
42 45 45 44 47 48 48 48 47 47 44 41 35 24 28 36 42 52 51 68 42 53 49 42 38 37 27 10 5 21 18 33 27 41 29 27 51 33 47 37 40 48 54 59 74
42 44 47 48 48 48 48 50 49 38 32 30 18 17 29 21 36 31 40 54 62 57 41 28 31 31 20 30 17 17 32 37 28 21 9 32 43 23 30 30 40 56 59 60 63
43 45 43 43 47 52 52 46 25 15 14 6 6 10 22 13 18 29 29 20 33 33 32 31 25 24 29 33 47 33 23 23 24 21 35 43 50 35 43 41 46 58 61 60 66
45 47 46 46 48 49 50 27 8 5 9 17 18 27 55 48 40 39 14 18 27 42 31 55 24 47 65 56 38 38 38 45 37 27 26 38 41 29 37 53 52 56 61 65 77
46 49 46 46 46 46 22 9 7 10 25 44 58 61 72 59 28 44 32 18 23 33 37 24 57 65 40 43 47 49 46 40 31 25 20 30 47 34 28 43 56 60 64 60 59
50 46 44 49 48 18 32 5 5 21 12 38 32 28 30 22 35 57 28 23 21 37 57 50 76 43 42 47 49 53 56 45 43 18 22 23 45 33 43 33 40 57 54 55 47
46 45 47 50 28 30 12 10 13 24 8 12 9 8 6 11 14 42 51 41 24 42 42 45 55 40 50 57 44 51 48 44 43 22 30 7 36 28 39 44 42 55 43 44 34
49 49 47 40 39 22 13 9 14 4 10 5 6 3 13 9 27 10 24 55 47 22 33 36 33 50 55 56 49 39 35 35 41 35 33 36 25 32 25 39 47 39 39 21 10
55 53 50 41 24 17 2 11 0 6 14 4 6 17 20 7 25 19 8 45 44 32 41 37 24 48 61 39 46 24 24 32 24 23 27 37 29 29 32 41 33 24 24 9 12
60 59 41 23 15 6 7 3 4 10 16 2 12 20 24 18 16 37 29 22 26 36 37 33 31 9 25 37 42 39 28 12 13 13 19 30 22 37 29 33 30 30 22 2 3
63 47 18 23 18 6 4 2 11 5 13 28 22 29 22 18 11 35 31 19 38 34 17 28 21 40 35 36 36 53 41 17 19 13 18 15 20 16 39 43 56 45 22 11 17
64 17 23 23 15 15 6 5 6 6 12 21 27 15 7 13 14 11 19 13 18 31 15 23 33 31 36 31 44 46 36 30 5 2 8 12 12 22 31 18 21 33 19 20 27
44 10 34 23 8 18 4 6 6 16 27 18 14 11 15 15 13 6 3 5 20 26 22 13 15 28 43 46 50 38 39 21 19 22 17 11 8 17 18 27 19 19 22 27 32
24 6 26 28 5 4 5 7 11 20 22 8 9 13 17 18 18 12 8 11 10 30 27 17 13 24 39 46 49 24 43 15 18 10 11 5 10 15 24 27 27 21 30 40 44
22 2 18 20 3 2 7 17 17 18 17 12 11 17 23 21 20 10 14 11 5 11 15 13 11 11 52 22 45 41 39 42 20 21 11 5 7 5 17 4 3 16 27 34 41
18 10 10 13 6 9 14 15 12 16 18 10 10 12 13 9 9 13 15 5 14 7 7 12 11 19 23 17 32 55 44 46 17 6 35 17 3 2 6 3 7 16 29 31 40
13 7 8 7 8 9 17 11 13 22 10 17 21 16 14 12 11 10 16 7 17 4 10 10 7 14 15 13 7 48 50 43 38 20 20 36 23 31 14 8 10 13 30 36 42
11 5 6 9 7 19 13 10 17 15 11 17 9 6 17 10 21 2 6 12 9 6 4 2 6 10 26 26 17 6 48 43 48 40 29 22 47 42 29 19 2 19 32 41 46
12 8 7 19 19 17 8 7 18 18 13 15 11 27 27 19 23 33 18 5 5 3 5 5 0 14 19 17 18 15 16 47 46 46 28 18 33 35 29 9 8 26 41 47 49
17 16 13 14 6 10 5 7 15 33 20 20 26 30 29 22 13 25 37 37 29 8 4 7 5 6 31 7 9 18 26 22 34 47 42 34 33 3 9 15 16 31 47 52 53
Wind_Direction_500mb
318 309 307 308 304 301 294 295 293 287 282 283 284 283 282 280 274 271 266 261 255 232 247 225 234 214 203 187 185 186 226 242 241 227 244 247 189 152 302 295 275 270 272 289 322
346 340 330 323 321 318 308 296 295 296 292 285 279 279 279 281 284 276 270 269 257 258 244 233 232 217 213 206 178 186 227 232 232 233 264 278 292 303 285 289 282 288 281 303 306
345 343 337 333 332 329 326 321 307 292 292 291 288 283 278 285 294 277 271 265 249 241 241 240 234 215 209 203 199 205 228 234 257 248 251 282 278 296 290 284 281 290 295 305 303
339 337 336 335 331 325 321 320 316 315 307 298 293 290 284 277 246 219 241 226 228 223 220 219 210 194 221 211 214 240 230 240 251 260 270 271 292 278 280 271 280 290 289 291 296
335 331 330 328 326 322 320 320 318 313 311 312 313 302 289 253 231 251 228 208 21 206 219 205 203 204 215 215 221 227 236 239 251 263 264 275 273 271 284 279 280 284 287 286 286
333 330 327 324 321 319 318 317 311 310 315 313 309 301 276 250 260 245 236 232 256 253 221 202 209 221 242 228 218 228 237 243 247 257 263 266 269 273 269 277 285 287 284 285 280
333 329 327 326 324 321 318 316 312 314 306 301 297 291 260 251 257 259 238 242 242 249 239 230 215 221 273 239 238 239 245 230 234 240 252 273 267 248 260 274 274 281 288 288 286
336 333 329 326 323 321 320 316 317 309 300 293 284 264 258 291 268 258 248 245 235 237 240 233 230 245 240 296 235 217 226 235 231 233 243 230 265 267 264 276 286 286 288 288 288
339 335 333 329 326 323 320 319 320 312 305 297 266 241 271 281 270 273 259 251 241 237 224 213 211 220 218 230 251 215 238 224 231 189 171 198 264 256 271 284 283 286 290 290 290
339 338 335 330 328 326 326 331 330 322 319 314 176 244 256 287 274 304 298 266 235 206 201 206 192 207 212 207 219 220 233 227 225 214 234 241 254 274 282 289 287 288 289 287 286
343 339 335 334 334 330 332 349 331 306 297 251 259 255 278 285 285 284 290 276 200 191 188 189 197 217 212 214 228 245 239 238 232 221 243 253 265 270 288 296 288 287 285 280 282
341 337 330 328 332 332 6 42 40 325 298 279 272 254 265 272 290 265 241 207 191 206 187 172 220 220 217 220 224 231 243 240 247 244 253 274 274 286 286 277 281 282 281 274 282
337 334 331 324 326 325 338 220 329 321 258 286 253 251 252 247 238 267 199 209 213 208 197 198 225 210 207 215 217 226 232 237 246 264 257 284 277 278 280 277 280 280 275 277 272
338 336 330 324 322 316 344 199 309 319 290 270 220 243 247 217 236 274 225 209 217 216 206 229 227 206 204 218 207 232 224 242 246 247 257 227 283 267 284 288 281 279 277 274 279
342 337 330 322 306 309 302 307 273 263 297 101 156 239 326 200 327 318 246 213 226 196 193 218 206 200 207 211 200 236 219 224 231 234 259 249 267 283 260 272 275 275 271 270 287
340 339 328 322 299 318 288 306 316 207 243 300 79 353 350 26 6 322 298 221 226 243 226 231 210 197 214 198 201 198 232 217 225 235 243 253 239 265 257 248 264 262 250 310 343
340 336 326 329 309 300 292 342 176 237 331 62 351 337 324 352 19 347 338 208 213 203 224 217 224 205 191 187 195 193 182 173 203 212 248 236 222 243 253 244 248 267 269 309 216
340 341 17 357 343 289 161 156 226 247 285 323 342 322 295 24 34 326 345 341 216 240 233 208 193 209 190 199 187 191 189 191 192 205 228 190 221 249 234 247 241 244 257 254 181
343 11 13 357 347 153 170 205 274 301 348 333 329 308 317 9 346 35 336 304 10 230 270 215 226 183 187 186 170 194 207 196 226 14 254 172 250 278 248 249 220 228 217 195 177
352 75 14 2 30 157 243 266 253 292 316 311 298 298 306 343 331 15 61 306 327 350 345 283 249 216 186 191 199 189 171 191 215 216 230 184 240 240 214 227 225 219 200 178 168
5 57 9 23 137 326 314 288 289 291 313 295 293 285 280 301 315 314 222 302 18 334 328 274 275 183 176 199 183 182 189 191 193 217 217 245 232 216 228 219 198 203 180 169 167
4 18 12 359 349 4 327 318 304 298 328 283 275 301 261 278 291 267 224 223 123 35 341 298 291 252 204 189 199 193 191 189 196 191 184 210 249 50 249 199 208 126 146 160 157
348 299 353 14 23 344 327 312 271 307 323 307 294 272 301 296 293 278 294 159 158 122 9 326 223 229 165 187 201 203 200 201 206 176 206 205 216 58 247 192 189 143 144 155 153
346 341 343 25 16 349 332 318 317 316 299 325 281 296 306 289 275 281 286 307 198 139 213 293 259 267 199 139 257 200 199 201 201 205 193 217 225 256 289 294 128 144 156 161 166
354 22 14 317 337 323 304 306 311 330 327 321 304 6 356 307 314 233 312 295 247 188 296 41 267 296 290 278 286 254 201 196 201 210 213 207 224 244 269 307 304 164 166 163 169
5 344 302 288 298 307 311 300 310 320 306 313 287 325 321 291 287 303 304 316 352 166 311 226 284 335 259 226 248 258 217 214 205 204 216 210 243 236 244 259 189 164 175 174 177
340 324 285 279 298 292 282 310 306 314 295 254 311 309 303 304 308 288 285 273 271 254 293 317 332 320 220 43 303 258 221 201 215 221 224 235 233 232 226 224 203 178 191 184 180
Wind_Speed_850mb
30 33 38 41 43 44 45 52 52 51 50 54 58 58 57 58 56 54 58 54 33 17 29 23 22 32 31 29 25 11 12 23 17 17 15 3 5 1 2 18 16 20 32 26 32
28 28 29 34 38 42 46 45 52 52 51 51 54 55 56 57 59 66 61 60 49 45 38 39 37 35 21 18 22 21 23 30 29 26 22 8 14 14 15 26 52 43 36 22 41
32 30 30 28 30 34 37 41 43 48 52 51 52 52 51 45 49 39 51 52 54 57 57 46 39 42 33 19 27 23 39 49 46 40 22 34 31 29 31 37 55 43 54 53 49
35 36 37 35 33 31 32 34 36 38 41 46 48 48 46 29 17 11 21 32 39 64 70 51 39 32 27 33 42 27 45 59 65 47 35 44 41 41 47 72 68 59 52 58 64
35 36 36 38 38 38 37 36 37 38 39 37 37 38 37 23 38 21 21 14 12 14 50 50 52 53 37 34 47 38 45 49 53 60 54 51 54 50 60 87 67 57 57 60 61
40 41 40 39 39 40 41 39 40 40 41 40 38 30 28 27 43 55 64 38 31 21 14 45 27 44 33 32 43 27 57 61 53 45 54 45 63 40 60 80 56 56 63 65 62
41 43 44 46 46 45 44 43 45 44 42 44 44 34 37 68 37 34 32 63 64 51 38 32 56 18 9 16 41 37 31 28 30 44 28 30 46 46 76 71 47 56 61 60 68
42 45 45 44 47 48 48 48 47 47 44 41 35 24 28 36 42 52 51 68 42 53 49 42 38 37 27 10 5 21 18 33 27 41 29 27 51 33 47 37 40 48 54 59 74
42 44 47 48 48 48 48 50 49 38 32 30 18 17 29 21 36 31 40 54 62 57 41 28 31 31 20 30 17 17 32 37 28 21 9 32 43 23 30 30 40 56 59 60 63
43 45 43 43 47 52 52 46 25 15 14 6 6 10 22 13 18 29 29 20 33 33 32 31 25 24 29 33 47 33 23 23 24 21 35 43 50 35 43 41 46 58 61 60 66
45 47 46 46 48 49 50 27 8 5 9 17 18 27 55 48 40 39 14 18 27 42 31 55 24 47 65 56 38 38 38 45 37 27 26 38 41 29 37 53 52 56 61 65 77
46 49 46 46 46 46 22 9 7 10 25 44 58 61 72 59 28 44 32 18 23 33 37 24 57 65 40 43 47 49 46 40 31 25 20 30 47 34 28 43 56 60 64 60 59
50 46 44 49 48 18 32 5 5 21 12 38 32 28 30 22 35 57 28 23 21 37 57 50 76 43 42 47 49 53 56 45 43 18 22 23 45 33 43 33 40 57 54 55 47
46 45 47 50 28 30 12 10 13 24 8 12 9 8 6 11 14 42 51 41 24 42 42 45 55 40 50 57 44 51 48 44 43 22 30 7 36 28 39 44 42 55 43 44 34
49 49 47 40 39 22 13 9 14 4 10 5 6 3 13 9 27 10 24 55 47 22 33 36 33 50 55 56 49 39 35 35 41 35 33 36 25 32 25 39 47 39 39 21 10
55 53 50 41 24 17 2 11 0 6 14 4 6 17 20 7 25 19 8 45 44 32 41 37 24 48 61 39 46 24 24 32 24 23 27 37 29 29 32 41 33 24 24 9 12
60 59 41 23 15 6 7 3 4 10 16 2 12 20 24 18 16 37 29 22 26 36 37 33 31 9 25 37 42 39 28 12 13 13 19 30 22 37 29 33 30 30 22 2 3
63 47 18 23 18 6 4 2 11 5 13 28 22 29 22 18 11 35 31 19 38 34 17 28 21 40 35 36 36 53 41 17 19 13 18 15 20 16 39 43 56 45 22 11 17
64 17 23 23 15 15 6 5 6 6 12 21 27 15 7 13 14 11 19 13 18 31 15 23 33 31 36 31 44 46 36 30 5 2 8 12 12 22 31 18 21 33 19 20 27
44 10 34 23 8 18 4 6 6 16 27 18 14 11 15 15 13 6 3 5 20 26 22 13 15 28 43 46 50 38 39 21 19 22 17 11 8 17 18 27 19 19 22 27 32
24 6 26 28 5 4 5 7 11 20 22 8 9 13 17 18 18 12 8 11 10 30 27 17 13 24 39 46 49 24 43 15 18 10 11 5 10 15 24 27 27 21 30 40 44
22 2 18 20 3 2 7 17 17 18 17 12 11 17 23 21 20 10 14 11 5 11 15 13 11 11 52 22 45 41 39 42 20 21 11 5 7 5 17 4 3 16 27 34 41
18 10 10 13 6 9 14 15 12 16 18 10 10 12 13 9 9 13 15 5 14 7 7 12 11 19 23 17 32 55 44 46 17 6 35 17 3 2 6 3 7 16 29 31 40
13 7 8 7 8 9 17 11 13 22 10 17 21 16 14 12 11 10 16 7 17 4 10 10 7 14 15 13 7 48 50 43 38 20 20 36 23 31 14 8 10 13 30 36 42
11 5 6 9 7 19 13 10 17 15 11 17 9 6 17 10 21 2 6 12 9 6 4 2 6 10 26 26 17 6 48 43 48 40 29 22 47 42 29 19 2 19 32 41 46
12 8 7 19 19 17 8 7 18 18 13 15 11 27 27 19 23 33 18 5 5 3 5 5 0 14 19 17 18 15 16 47 46 46 28 18 33 35 29 9 8 26 41 47 49
17 16 13 14 6 10 5 7 15 33 20 20 26 30 29 22 13 25 37 37 29 8 4 7 5 6 31 7 9 18 26 22 34 47 42 34 33 3 9 15 16 31 47 52 53
Wind_Direction_850mb
318 309 307 308 304 301 294 295 293 287 282 283 284 283 282 280 274 271 266 261 255 232 247 225 234 214 203 187 185 186 226 242 241 227 244 247 189 152 302 295 275 270 272 289 322
346 340 330 323 321 318 308 296 295 296 292 285 279 279 279 281 284 276 270 269 257 258 244 233 232 217 213 206 178 186 227 232 232 233 264 278 292 303 285 289 282 288 281 303 306
345 343 337 333 332 329 326 321 307 292 292 291 288 283 278 285 294 277 271 265 249 241 241 240 234 215 209 203 199 205 228 234 257 248 251 282 278 296 290 284 281 290 295 305 303
339 337 336 335 331 325 321 320 316 315 307 298 293 290 284 277 246 219 241 226 228 223 220 219 210 194 221 211 214 240 230 240 251 260 270 271 292 278 280 271 280 290 289 291 296
335 331 330 328 326 322 320 320 318 313 311 312 313 302 289 253 231 251 228 208 21 206 219 205 203 204 215 215 221 227 236 239 251 263 264 275 273 271 284 279 280 284 287 286 286
333 330 327 324 321 319 318 317 311 310 315 313 309 301 276 250 260 245 236 232 256 253 221 202 209 221 242 228 218 228 237 243 247 257 263 266 269 273 269 277 285 287 284 285 280
333 329 327 326 324 321 318 316 312 314 306 301 297 291 260 251 257 259 238 242 242 249 239 230 215 221 273 239 238 239 245 230 234 240 252 273 267 248 260 274 274 281 288 288 286
336 333 329 326 323 321 320 316 317 309 300 293 284 264 258 291 268 258 248 245 235 237 240 233 230 245 240 296 235 217 226 235 231 233 243 230 265 267 264 276 286 286 288 288 288
339 335 333 329 326 323 320 319 320 312 305 297 266 241 271 281 270 273 259 251 241 237 224 213 211 220 218 230 251 215 238 224 231 189 171 198 264 256 271 284 283 286 290 290 290
339 338 335 330 328 326 326 331 330 322 319 314 176 244 256 287 274 304 298 266 235 206 201 206 192 207 212 207 219 220 233 227 225 214 234 241 254 274 282 289 287 288 289 287 286
343 339 335 334 334 330 332 349 331 306 297 251 259 255 278 285 285 284 290 276 200 191 188 189 197 217 212 214 228 245 239 238 232 221 243 253 265 270 288 296 288 287 285 280 282
341 337 330 328 332 332 6 42 40 325 298 279 272 254 265 272 290 265 241 207 191 206 187 172 220 220 217 220 224 231 243 240 247 244 253 274 274 286 286 277 281 282 281 274 282
337 334 331 324 326 325 338 220 329 321 258 286 253 251 252 247 238 267 199 209 213 208 197 198 225 210 207 215 217 226 232 237 246 264 257 284 277 278 280 277 280 280 275 277 272
338 336 330 324 322 316 344 199 309 319 290 270 220 243 247 217 236 274 225 209 217 216 206 229 227 206 204 218 207 232 224 242 246 247 257 227 283 267 284 288 281 279 277 274 279
342 337 330 322 306 309 302 307 273 263 297 101 156 239 326 200 327 318 246 213 226 196 193 218 206 200 207 211 200 236 219 224 231 234 259 249 267 283 260 272 275 275 271 270 287
340 339 328 322 299 318 288 306 316 207 243 300 79 353 350 26 6 322 298 221 226 243 226 231 210 197 214 198 201 198 232 217 225 235 243 253 239 265 257 248 264 262 250 310 343
340 336 326 329 309 300 292 342 176 237 331 62 351 337 324 352 19 347 338 208 213 203 224 217 224 205 191 187 195 193 182 173 203 212 248 236 222 243 253 244 248 267 269 309 216
340 341 17 357 343 289 161 156 226 247 285 323 342 322 295 24 34 326 345 341 216 240 233 208 193 209 190 199 187 191 189 191 192 205 228 190 221 249 234 247 241 244 257 254 181
343 11 13 357 347 153 170 205 274 301 348 333 329 308 317 9 346 35 336 304 10 230 270 215 226 183 187 186 170 194 207 196 226 14 254 172 250 278 248 249 220 228 217 195 177
352 75 14 2 30 157 243 266 253 292 316 311 298 298 306 343 331 15 61 306 327 350 345 283 249 216 186 191 199 189 171 191 215 216 230 184 240 240 214 227 225 219 200 178 168
5 57 9 23 137 326 314 288 289 291 313 295 293 285 280 301 315 314 222 302 18 334 328 274 275 183 176 199 183 182 189 191 193 217 217 245 232 216 228 219 198 203 180 169 167
4 18 12 359 349 4 327 318 304 298 328 283 275 301 261 278 291 267 224 223 123 35 341 298 291 252 204 189 199 193 191 189 196 191 184 210 249 50 249 199 208 126 146 160 157
348 299 353 14 23 344 327 312 271 307 323 307 294 272 301 296 293 278 294 159 158 122 9 326 223 229 165 187 201 203 200 201 206 176 206 205 216 58 247 192 189 143 144 155 153
346 341 343 25 16 349 332 318 317 316 299 325 281 296 306 289 275 281 286 307 198 139 213 293 259 267 199 139 257 200 199 201 201 205 193 217 225 256 289 294 128 144 156 161 166
354 22 14 317 337 323 304 306 311 330 327 321 304 6 356 307 314 233 312 295 247 188 296 41 267 296 290 278 286 254 201 196 201 210 213 207 224 244 269 307 304 164 166 163 169
5 344 302 288 298 307 311 300 310 320 306 313 287 325 321 291 287 303 304 316 352 166 311 226 284 335 259 226 248 258 217 214 205 204 216 210 243 236 244 259 189 164 175 174 177
340 324 285 279 298 292 282 310 306 314 295 254 311 309 303 304 308 288 285 273 271 254 293 317 332 320 220 43 303 258 221 201 215 221 224 235 233 232 226 224 203 178 191 184 180